Regional Weather Roundup
Issued by NWS New Orleans/Baton Rouge, LA

Current Version | Previous Version | Text Only | Print | Product List | Glossary On
Versions: 1 2 3 4 5 6 7 8 9 10 11 12 13 14 15 16 17 18 19 20 21 22 23 24 25 26 27
000
ASUS44 KLIX 280213
RWRLIX
NEW ORLEANS REGIONAL WEATHER ROUNDUP
NATIONAL WEATHER SERVICE NEW ORLEANS LA
900 PM CDT THU JUL 27 2017

NOTE: "FAIR" INDICATES FEW OR NO CLOUDS BELOW 12,000 FEET WITH NO
      SIGNIFICANT WEATHER AND/OR OBSTRUCTIONS TO VISIBILITY.
      SKY/WX - SKY CONDITION AND SIGNIFICANT WEATHER.
      TMP - AIR TEMPERATURE.     DP    - DEWPOINT TEMPERATURE.
      RH  - RELATIVE HUMIDITY.   PRES  - PRESSURE.
      HI  - HEAT INDEX.          WCI   - WIND CHILL INDEX.

*  THESE STATIONS ARE NOT NWS OR FAA STATIONS AND ARE NOT UNDER
   NWS QUALITY CONTROL.

LAZ038-040-048-061>063-065>067-069-280300-
SOUTHEAST LOUISIANA

CITY           SKY/WX    TMP DP  RH WIND       PRES   REMARKS
N.O. INTL ARPT PTCLDY    83  74  74 SW8       29.95F
N.O. LAKEFRONT CLEAR     90  73  57 W5        29.95F HX  98
N.O. DOWNTOWN*   N/A     91  68  46 W3          N/A  HX  95
RESERVE*         N/A     83  78  84 CALM      29.96S
SLIDELL        PTCLDY    82  76  81 CALM      29.95S
BATON ROUGE    CLEAR     80  73  79 CALM      29.95S
BOOTHVILLE     CLEAR     86  76  71 W3        29.97S HX  96
BELLE CHASSE   PTCLDY    86  78  77 SW3       29.95F HX  98
BOGALUSA*        N/A     81  76  84 CALM      29.97S
GALLIANO*      CLEAR     81  74  81 SW3       29.96F
NEW ROADS*       N/A     79  75  86 CALM      29.96S
GONZALES*        N/A     81  74  81 CALM      29.95S
HAMMOND*       CLEAR     81  72  74 CALM      29.95F
HOUMA*         NOT AVBL
PORT FOURCHON* CLEAR     88  75  66 SW5       29.97F HX  97

$$

MSZ070-080>082-280300-
SOUTHERN MISSISSIPPI

CITY           SKY/WX    TMP DP  RH WIND       PRES   REMARKS
MCCOMB         CLEAR     79  74  84 CALM      29.97S
GULFPORT       PTCLDY    83  77  82 CALM      29.94F
BILOXI         CLOUDY    82  74  76 CALM      29.94F
PASCAGOULA     CLOUDY    79  76  90 CALM      29.95F

$$

COASTAL OBSERVATIONS
LAKE AND NEARSHORE STATIONS

STATION/POSITION TIME  TEMP    WIND        PRES    WAVE
                       AIR SEA DIR/SP/G            HT/PER
                 (UTC) (F)     (DEG/KT/KT) (MB)    (FT/S)
PASCAGOULA       0130   85     230/  2/  3 1013.9
WAVELAND YACHT   0130   87 88  250/  4/  4 1014.1
GRAND ISLE       0130   85 88  240/  4/  6 1015.1
SOUTHWEST PASS   0130   87     220/  2/  3   N/A
NEW CANAL        0130   90 89  210/  2/  2 1014.3
SHELL BEACH      0130   89 93  230/  3/  4 1014.6

OFFSHORE STATIONS

STATION/POSITION TIME  TEMP    WIND        PRES    WAVE
                       AIR SEA DIR/SP/G            HT/PER
                 (UTC) (F)     (DEG/KT/KT) (MB)    (FT/S)
64 S DAUPHIN ISL 0150   86 87  290/  4/  6 1014.5    1

$$





USA.gov is the U.S. government's official web portal to all federal, state and local government web resources and services.